Dewpoint
40 41 40 41 40 41 42 42 41 40 40 39 42 44 45 44 48 52 55 57 53 52 52 51 53 54 50 43 44 52 50 50 53 56 52 46 42 39 37 35 35 36 35 33 36 38 38
40 41 41 40 41 41 42 41 40 40 40 39 40 43 46 46 45 49 53 55 54 52 52 51 52 53 45 38 43 45 45 46 47 51 52 49 45 42 39 36 36 36 36 35 36 36 36
41 42 44 41 41 39 41 42 41 41 40 39 41 41 45 47 46 47 51 55 56 52 52 51 52 48 42 35 38 42 43 46 50 50 48 50 48 43 42 39 39 38 36 36 35 35 34
41 47 42 41 41 42 43 41 42 41 41 39 38 42 43 45 46 47 51 55 56 53 52 51 51 44 38 42 41 41 42 45 49 50 50 50 48 45 43 40 37 35 34 31 30 32 32
45 41 40 42 41 41 41 42 41 41 41 40 40 41 44 45 46 47 49 52 55 53 52 51 46 41 36 41 37 38 40 42 44 46 49 51 49 44 43 37 33 32 28 28 27 31 31
42 42 42 42 42 41 43 41 41 40 41 40 41 42 44 44 46 47 47 51 55 53 50 48 44 40 39 37 37 38 40 42 41 41 43 43 40 37 37 35 27 26 27 27 26 27 30
40 43 42 41 43 42 43 41 41 40 39 41 42 43 43 43 45 45 47 48 47 46 47 40 39 35 38 39 39 37 39 41 40 38 34 36 32 30 29 29 29 26 27 25 26 28 28
43 43 44 42 42 42 43 42 41 40 40 41 39 44 44 43 44 44 44 43 43 45 39 40 39 39 39 38 37 36 38 36 37 35 34 34 32 30 29 29 29 29 28 26 26 27 27
43 43 41 42 43 42 43 41 40 40 41 38 38 44 45 44 45 44 40 41 47 49 39 38 39 38 39 40 35 36 37 34 33 32 32 31 29 30 30 30 29 29 27 26 25 26 25
41 39 41 41 40 41 41 41 41 40 40 37 40 46 47 46 44 42 38 41 48 48 34 34 37 38 40 38 36 37 37 34 33 29 31 30 30 29 28 29 28 26 26 25 25 25 22
39 40 40 39 40 41 41 41 40 39 39 38 40 43 45 45 45 37 41 44 49 45 23 34 35 38 39 34 36 37 37 36 30 29 31 30 30 29 28 27 27 26 29 27 27 26 26
39 39 40 40 41 40 41 40 40 39 38 39 40 43 45 45 44 41 46 48 43 28 23 32 38 35 34 32 35 37 37 37 33 30 31 29 31 31 30 29 29 30 28 28 27 27 24
38 42 42 42 41 40 40 40 39 38 38 39 42 44 45 46 39 44 48 41 27 23 30 31 31 35 33 30 33 36 35 34 31 29 28 30 29 30 30 29 30 29 29 22 23 22 17
40 41 41 41 40 40 40 40 39 39 38 41 43 45 45 44 42 46 41 33 24 29 27 29 33 33 31 31 32 32 32 31 31 29 28 26 26 29 32 31 28 28 27 21 14 8 11
39 41 41 40 40 40 40 39 38 36 40 43 45 44 44 44 45 42 36 27 30 27 29 29 32 32 31 29 30 32 31 29 30 30 29 26 26 29 32 31 29 28 27 27 24 21 19
39 40 39 39 40 40 39 39 37 37 41 44 44 42 40 43 45 42 34 31 28 29 30 30 26 27 26 29 29 29 30 29 29 30 30 31 27 27 30 31 31 29 28 25 27 18 13
41 40 40 38 39 40 39 39 36 38 41 44 43 37 43 46 44 37 30 33 31 30 30 29 27 26 26 27 27 27 28 29 29 29 30 31 27 26 29 29 26 29 28 27 24 24 17
41 40 39 39 39 39 38 39 37 39 44 45 40 32 45 43 34 33 32 36 32 31 34 32 29 27 27 27 27 27 27 28 30 29 29 30 29 25 24 25 26 26 27 26 24 19 23
40 41 39 38 39 39 38 38 37 40 44 45 35 37 45 45 30 31 36 36 33 33 33 32 32 30 29 28 27 28 28 31 31 30 28 30 28 23 24 26 25 25 26 25 27 30 26
40 40 39 39 39 38 38 39 37 40 44 45 37 32 36 39 38 34 35 34 32 37 34 33 33 31 30 29 30 28 29 32 32 30 33 30 28 25 20 22 25 29 28 28 32 27 24
39 39 38 37 38 38 38 39 37 41 44 45 40 36 37 33 33 32 34 33 32 31 35 34 32 31 30 29 30 30 30 32 34 33 32 31 28 26 27 27 27 29 30 31 32 32 28
37 37 37 36 39 38 38 39 37 41 45 41 37 38 39 33 33 31 32 32 34 33 31 31 30 32 31 29 29 29 32 31 30 33 32 34 28 32 28 29 29 30 31 33 36 35 34
39 39 38 37 38 39 38 39 36 40 44 40 40 41 41 35 31 32 30 31 31 32 34 34 32 32 31 32 33 34 36 34 32 34 32 33 32 29 26 28 28 30 36 36 36 36 36
39 38 38 38 38 39 38 39 36 39 42 44 41 41 38 32 32 31 30 31 31 32 34 35 34 33 38 40 39 38 37 37 37 34 34 32 32 31 28 28 25 31 33 34 34 37 38
37 36 37 39 39 38 38 38 36 38 41 43 43 41 39 34 32 31 32 31 33 35 34 35 37 38 41 39 36 33 33 34 34 35 33 33 32 30 26 25 26 29 31 31 33 35 39
36 36 36 38 38 38 38 37 36 36 40 41 43 44 42 38 34 33 34 32 32 32 35 37 43 44 42 39 35 29 24 24 29 34 34 32 32 32 27 26 22 27 31 34 39 31 39
36 35 34 36 37 38 37 35 35 36 39 40 42 44 41 39 39 38 33 33 35 35 37 40 41 41 43 36 32 30 26 29 28 30 32 33 32 29 29 28 28 30 32 34 27 28 35
36 35 34 33 33 33 33 34 34 36 37 38 39 44 40 37 42 43 41 38 39 38 36 40 38 39 38 34 33 29 26 27 28 29 31 31 31 30 31 29 27 33 34 32 34 35 34
36 35 34 33 33 33 32 32 35 34 34 36 38 41 41 38 44 46 45 45 43 42 41 40 39 38 38 36 36 34 30 31 28 26 33 30 30 36 35 32 33 35 36 36 36 35 36
Wind_Speed
18 18 19 20 22 20 22 23 22 22 21 22 23 23 24 24 23 23 21 19 16 13 10 7 5 4 6 8 9 10 2 4 10 19 18 16 15 16 15 14 9 15 18 13 16 16 16
17 18 19 22 23 23 23 23 23 24 22 22 24 22 25 24 24 23 22 16 17 15 12 9 6 4 9 14 3 3 3 3 12 18 18 13 6 8 7 10 12 2 12 17 16 18 18
18 19 20 22 22 23 23 24 26 25 24 24 24 23 24 23 23 22 22 17 17 16 13 10 8 9 10 9 2 2 4 2 3 10 16 14 8 7 4 6 10 9 15 18 23 22 18
20 20 21 22 22 21 22 22 24 26 27 26 23 23 25 23 21 20 19 18 23 19 15 12 10 8 7 1 3 4 6 5 6 9 6 9 6 2 3 2 5 8 12 17 4 7 11
21 22 23 23 22 24 25 25 25 23 26 28 25 23 23 22 20 20 20 17 17 21 17 13 8 7 5 5 6 9 8 9 9 8 8 11 9 3 4 9 13 14 12 16 12 8 8
23 24 25 25 26 26 26 25 26 25 25 23 24 22 21 20 18 16 20 19 15 20 16 11 3 5 7 7 8 9 9 10 12 14 10 8 8 10 14 16 12 15 17 16 13 5 9
25 26 26 27 27 27 27 27 26 26 26 22 23 20 20 19 18 18 16 6 8 10 13 7 13 2 13 10 11 10 14 15 11 13 9 10 11 18 18 19 19 10 10 13 12 9 18
23 27 29 30 27 28 28 26 27 25 27 26 19 18 21 21 18 16 13 6 8 6 10 9 12 8 10 12 8 12 16 14 15 16 11 6 19 18 12 11 14 15 16 18 17 15 15
26 26 29 29 30 30 27 26 27 27 24 26 22 20 24 21 23 19 17 15 16 12 4 16 14 14 9 9 9 18 20 14 18 19 20 14 1 5 15 12 13 16 17 16 17 18 22
28 29 30 31 31 29 28 27 27 26 27 24 22 21 21 26 23 19 19 12 11 1 6 12 11 8 10 9 6 17 19 10 7 17 14 15 10 5 9 14 12 13 10 12 13 11 8
28 28 30 28 29 29 28 27 26 25 28 24 25 27 20 20 9 12 4 16 14 0 8 18 12 10 18 13 18 14 16 5 11 9 10 5 6 14 15 14 9 7 3 6 8 13 18
28 28 28 30 28 28 27 25 24 27 27 24 26 30 29 18 11 15 6 21 13 5 6 8 9 16 21 18 9 14 16 4 4 8 13 13 3 6 8 5 10 3 3 7 9 9 13
29 30 30 28 28 28 27 25 24 26 28 25 29 34 30 11 8 15 13 13 11 8 13 10 11 17 21 20 13 16 16 13 11 7 12 12 19 8 9 7 6 9 1 2 5 7 13
29 28 29 27 27 27 26 25 27 27 27 27 31 35 6 8 6 18 3 9 9 9 10 9 19 22 12 22 12 17 17 15 16 13 4 9 6 19 13 14 5 15 11 7 7 11 17
27 29 27 26 27 26 26 26 28 29 27 29 32 8 1 8 12 18 8 9 2 16 13 16 22 8 10 21 9 13 16 15 14 16 8 6 3 1 10 7 12 6 12 12 16 23 19
26 27 26 25 27 26 26 27 30 27 28 31 13 6 2 14 17 12 4 1 2 9 19 22 8 9 12 20 12 13 16 12 8 18 13 1 2 6 8 6 11 14 0 3 6 6 14
27 26 27 25 27 26 26 27 30 28 32 33 5 3 4 13 15 4 4 3 8 19 15 5 10 12 13 20 12 17 17 4 16 13 16 6 4 5 6 13 15 15 15 9 10 10 10
24 26 25 25 25 25 27 28 31 30 34 18 1 4 8 13 5 2 2 4 18 15 2 3 8 8 20 20 11 11 9 1 7 9 11 11 3 7 15 10 9 17 17 22 12 11 12
25 26 26 25 25 26 27 29 32 33 36 4 3 3 2 5 5 3 2 9 9 6 1 3 5 3 9 17 7 7 5 6 9 13 11 13 6 4 2 2 10 13 18 22 25 26 31
26 26 24 24 23 25 27 29 32 35 35 5 3 3 3 1 1 4 7 8 7 4 8 9 11 14 13 14 5 9 6 4 8 11 6 6 7 10 13 13 13 9 19 22 20 17 33
24 25 26 24 23 24 25 27 31 33 37 5 2 4 2 3 4 7 6 6 7 4 4 4 5 6 6 5 5 4 6 7 7 7 7 7 9 16 24 25 24 24 28 30 28 32 28
21 22 22 22 23 22 24 26 28 30 32 8 6 3 2 3 6 8 3 11 10 2 2 3 5 6 4 4 1 6 8 6 5 8 9 5 5 5 19 21 16 22 26 25 25 26 23
22 22 23 22 20 21 22 23 27 27 22 5 5 4 6 2 8 6 8 11 10 6 4 6 6 5 2 2 1 2 2 2 4 10 14 6 4 4 7 12 25 12 6 12 17 16 11
22 23 21 19 19 18 19 20 23 23 22 6 3 4 4 3 8 10 6 7 8 6 6 5 4 2 4 5 3 2 6 9 11 12 10 7 5 3 9 16 4 2 4 12 9 9 13
20 21 21 20 18 16 17 19 21 21 23 12 3 2 3 2 7 7 5 8 5 5 2 4 4 6 4 2 1 2 3 3 13 23 22 17 8 4 4 9 20 5 10 9 3 6 11
18 19 18 18 17 17 17 19 20 20 23 13 1 6 4 4 7 6 6 8 8 8 3 3 6 6 3 1 2 3 4 4 3 3 10 18 15 7 4 6 5 6 15 6 6 3 4
17 17 17 17 17 16 17 18 19 20 21 14 3 7 4 4 2 4 11 9 4 5 2 3 3 2 7 5 4 4 4 1 3 5 6 7 5 14 15 7 11 12 13 2 8 8 12
15 16 16 16 16 17 16 16 16 17 18 15 7 3 6 4 1 2 3 1 4 6 4 5 3 1 5 6 5 4 7 4 4 3 6 10 8 6 7 7 8 7 9 6 10 12 8
14 15 15 16 16 16 16 15 15 17 17 15 4 6 8 4 5 2 4 2 2 2 5 8 1 4 4 5 6 5 5 4 6 3 5 6 9 4 10 6 12 13 10 9 6 11 6
Wind_Direction
349 354 353 350 345 349 344 340 341 340 334 332 323 321 322 313 321 322 314 237 213 214 216 213 225 249 240 216 246 130 151 193 218 195 206 193 208 210 220 210 201 232 251 246 265 261 259
342 345 341 343 340 339 339 335 334 330 329 327 326 325 320 313 311 316 313 261 213 206 201 202 203 227 235 224 77 128 207 208 214 201 202 208 226 240 268 226 215 330 260 266 259 259 256
339 332 339 340 338 331 331 328 328 326 327 324 319 318 321 314 309 307 307 299 219 201 189 192 189 210 233 217 111 172 213 197 236 190 198 203 231 188 185 252 242 265 263 263 253 246 242
333 336 334 328 324 329 322 326 322 321 321 320 320 321 313 314 309 307 302 299 226 191 179 185 190 199 242 78 211 178 192 163 172 167 209 136 98 181 271 111 215 232 242 257 200 227 241
328 332 328 325 326 326 324 325 324 319 319 320 321 318 310 315 311 310 312 288 297 172 171 170 185 214 229 137 190 185 192 175 146 147 156 159 139 205 192 230 234 220 249 224 238 212 249
330 326 323 325 324 322 328 320 322 321 317 316 316 310 304 308 313 306 317 293 299 164 168 175 174 201 194 193 149 156 182 172 155 144 134 158 187 203 209 213 221 236 223 245 259 181 235
328 326 324 322 324 324 323 324 321 318 313 317 314 312 310 314 314 327 325 321 225 181 181 179 187 141 135 118 139 163 165 174 170 174 180 191 205 214 221 225 254 277 287 276 272 277 280
331 323 327 328 324 324 324 324 318 316 318 319 316 302 317 304 305 306 308 273 263 354 174 227 169 109 136 155 135 154 167 173 187 193 175 175 229 231 237 251 243 252 260 263 276 281 289
325 328 328 326 326 330 329 322 318 320 320 318 320 318 311 307 294 288 256 244 241 8 229 186 169 167 158 180 165 169 186 198 194 204 196 211 189 251 226 223 232 242 256 271 280 302 293
336 332 330 330 330 331 327 322 321 322 318 319 318 315 303 313 292 252 248 240 209 56 202 158 192 201 165 176 171 163 190 176 195 211 200 234 219 199 204 224 224 260 266 277 281 290 279
336 330 328 332 334 330 327 326 322 324 321 319 318 321 315 304 309 240 293 180 123 26 197 145 147 149 170 174 128 178 185 193 201 199 176 217 222 215 226 228 212 236 14 282 288 286 304
331 327 332 335 334 329 330 327 325 323 319 315 320 318 311 296 240 229 88 127 105 237 192 136 135 170 163 182 150 146 174 225 266 218 222 254 149 220 215 206 219 68 271 275 269 269 262
332 334 331 331 333 333 333 331 327 327 324 323 321 318 310 257 223 166 155 121 169 243 157 145 161 163 163 172 158 164 174 184 182 176 218 231 231 204 228 220 203 209 193 280 231 210 249
331 339 338 338 335 336 336 334 334 330 328 323 326 314 277 202 218 138 48 133 222 133 145 156 144 151 168 162 182 177 176 195 213 221 161 201 191 201 178 213 198 209 203 224 274 260 297
334 341 343 343 339 340 337 340 335 334 332 333 327 307 255 176 147 124 162 170 223 148 136 143 137 137 139 171 159 173 195 198 212 207 201 184 242 204 174 192 205 174 212 242 278 282 278
341 338 341 348 343 341 342 340 342 337 334 336 323 299 39 153 143 128 151 220 34 118 139 141 131 178 162 173 163 175 181 205 201 207 217 16 248 182 179 213 225 217 235 192 208 265 269
341 340 340 350 345 346 344 343 344 338 336 328 294 341 50 136 136 81 190 72 107 133 133 177 157 157 172 169 183 178 185 130 196 189 195 189 213 152 161 211 205 202 232 229 274 238 275
342 341 341 345 349 345 347 348 346 341 332 318 147 84 114 135 99 131 162 92 135 137 105 124 136 149 153 166 166 173 176 117 187 183 184 193 193 245 244 242 227 233 222 227 234 243 237
341 342 344 345 351 345 351 350 347 343 343 4 61 66 339 234 135 211 284 102 125 146 74 139 125 133 143 156 154 176 187 114 168 177 174 170 212 290 173 163 238 234 247 251 249 262 258
340 344 346 344 349 348 355 351 350 347 353 28 140 94 53 342 304 143 99 90 110 55 70 92 108 126 126 147 86 162 164 144 174 197 85 204 224 236 267 311 321 244 255 255 247 257 267
341 344 347 346 352 351 357 357 355 352 352 347 8 61 157 170 161 150 128 134 119 140 100 107 109 134 123 137 157 179 169 140 159 183 186 203 255 259 264 277 284 281 279 279 271 260 259
340 341 340 348 350 352 356 359 2 359 353 34 28 358 267 125 161 160 144 157 173 112 124 125 132 142 109 99 73 172 173 184 199 176 187 225 261 283 285 268 268 282 281 281 274 271 271
334 341 340 344 351 354 357 2 3 4 7 4 333 309 297 315 170 158 191 170 176 153 56 70 117 140 121 10 243 127 197 222 243 180 197 213 219 287 277 321 309 286 251 284 299 296 281
338 345 342 342 349 358 358 3 3 4 10 332 311 308 316 164 196 200 180 171 176 200 119 105 117 128 67 68 70 182 200 230 255 239 226 204 191 246 291 316 284 345 325 289 268 292 338
345 346 346 345 349 356 359 3 2 0 2 357 309 288 300 265 191 210 199 198 159 138 156 138 116 93 89 79 357 220 194 241 233 229 229 223 210 267 278 301 280 298 15 333 301 298 325
343 345 348 348 349 352 0 360 359 358 358 358 345 334 294 295 218 184 186 188 191 206 166 138 88 107 97 191 209 246 226 240 162 149 228 223 225 201 303 295 290 339 7 12 155 354 33
338 343 342 347 351 352 354 355 354 357 0 358 307 4 290 284 80 187 194 188 175 174 98 107 147 175 179 187 228 243 250 212 223 188 158 162 186 220 237 252 276 293 332 111 330 337 349
333 335 337 340 339 339 343 344 346 351 357 358 289 39 341 320 305 291 342 165 164 206 165 144 124 136 166 206 218 234 258 228 240 202 177 187 182 196 193 224 271 6 321 354 328 312 326
328 326 331 335 332 333 335 333 339 348 346 353 321 331 303 222 314 304 305 334 35 14 137 172 207 147 193 210 213 260 239 240 246 239 200 222 211 192 203 236 307 314 297 320 338 304 332